Temp
38 38 39 39 40 40 41 41 41 40 41 42 43 43 44 44 43 42 42 42 42 42 42 42 42 42 41 41 40 39 38 38 38 37 37 36 35 34 33 32 32 31 31 31 30 29 29 29 28 28 28 27 27 26 26 25 26 25 24 24 25 24
39 39 40 40 40 40 38 38 38 40 41 41 41 42 40 40 42 42 42 42 42 42 42 41 41 41 40 40 39 38 38 38 37 36 35 36 34 34 33 32 32 31 31 30 30 29 29 28 28 28 27 27 27 26 25 25 25 25 24 23 24 25
40 41 41 38 37 37 38 39 40 42 40 41 42 42 42 42 43 42 42 42 42 41 41 41 41 40 40 39 38 38 38 37 37 36 36 33 33 33 32 32 32 31 31 30 29 29 28 28 27 27 27 27 26 25 25 24 24 24 23 23 23 23
42 41 39 38 37 38 39 40 40 39 41 42 42 41 41 42 42 42 43 42 42 41 42 41 40 39 38 38 37 37 37 36 36 35 33 34 33 33 33 32 32 31 31 30 29 29 28 28 27 27 27 26 25 24 25 24 23 23 22 22 21 21
42 41 40 41 42 42 41 39 39 41 41 42 42 41 42 43 44 44 43 42 41 41 41 41 39 38 37 37 37 37 37 36 35 34 34 33 33 33 33 32 32 31 30 29 29 28 28 28 27 27 27 26 25 24 23 23 23 22 21 20 20 20
39 41 41 42 42 42 43 43 42 41 41 42 42 42 43 43 43 43 42 42 41 41 40 39 39 37 37 37 37 37 36 36 35 33 34 34 33 32 32 32 31 31 30 29 28 28 27 27 26 26 26 25 25 24 23 22 22 21 21 21 20 20
42 44 44 44 45 44 44 44 42 41 42 41 42 43 44 44 43 42 42 41 41 40 39 38 37 37 36 36 37 36 36 35 34 33 34 33 32 32 31 31 30 30 29 29 28 27 27 26 26 25 24 24 24 23 23 22 22 21 21 21 20 21
44 43 44 44 45 45 46 45 43 42 42 42 42 43 43 43 43 42 41 40 40 39 38 38 37 37 37 37 37 36 36 35 34 33 33 33 32 31 31 30 29 29 29 29 28 27 26 26 25 24 24 23 23 22 22 22 21 21 20 20 21 21
46 47 47 47 47 47 46 45 43 42 42 42 42 43 43 43 41 41 40 40 39 39 38 37 37 38 37 37 37 37 35 34 33 33 32 32 32 30 29 29 29 29 29 28 27 26 25 25 24 24 23 22 22 22 22 22 22 22 21 21 21 21
49 48 49 48 48 47 44 43 43 43 43 43 43 42 42 42 40 40 40 40 39 39 39 38 38 38 38 37 37 35 34 33 32 32 32 31 31 30 29 29 28 28 28 27 26 25 25 24 23 22 22 22 23 23 22 22 21 20 19 19 19 19
51 51 50 49 47 46 45 44 43 43 42 42 43 41 41 41 40 40 39 39 39 39 40 39 38 37 36 35 34 33 32 32 32 31 31 30 30 30 29 29 28 26 25 25 24 24 23 23 23 23 23 22 22 22 21 20 20 19 19 19 19 19
52 53 53 53 51 50 49 46 44 43 42 43 43 42 42 40 40 40 39 38 39 40 39 38 36 35 34 33 32 32 32 31 30 30 29 28 29 28 28 27 26 26 25 23 23 23 23 24 24 25 27 26 22 20 20 19 19 19 19 18 18 19
51 51 52 52 53 52 50 50 49 46 43 43 42 41 42 40 40 39 39 39 39 39 37 35 34 33 32 32 32 31 30 30 29 28 27 27 26 26 25 25 24 24 24 23 22 22 23 23 23 28 29 29 28 22 20 18 18 18 19 19 19 18
50 50 51 53 55 55 52 50 48 45 43 43 42 42 41 38 39 39 39 39 39 37 35 34 32 31 31 30 29 29 28 28 27 26 26 25 24 24 24 24 23 23 23 23 22 22 22 22 26 30 30 30 29 25 20 19 18 18 19 20 20 20
45 47 49 52 53 54 55 54 49 45 44 43 43 40 37 37 38 38 38 38 37 35 34 32 30 30 29 28 28 27 26 26 26 25 24 23 24 23 22 23 23 22 23 22 22 22 22 21 28 31 31 30 29 27 22 19 19 19 19 20 20 20
43 45 46 47 50 52 54 53 47 47 46 43 37 37 37 36 36 36 36 35 34 33 32 31 30 29 28 27 27 26 25 24 25 25 25 24 23 23 23 22 22 22 22 22 22 22 21 20 27 31 32 31 30 28 23 18 19 19 19 20 21 21
42 42 43 45 45 46 47 47 45 44 42 38 38 37 36 35 35 35 35 34 33 32 31 30 29 28 27 26 26 25 25 24 25 24 24 24 23 23 23 22 21 21 21 21 21 20 20 20 28 31 32 32 31 29 24 19 20 20 20 22 23 23
40 40 41 42 43 44 44 43 43 40 41 35 36 34 34 33 33 33 33 32 31 31 31 29 28 27 26 26 25 24 24 24 24 24 23 23 23 23 23 22 22 21 20 20 19 19 18 19 28 31 32 32 32 31 23 21 21 21 21 22 23 23
41 41 41 41 42 40 39 38 38 38 34 32 30 30 30 31 31 31 31 31 31 30 30 29 28 27 25 25 24 23 23 23 23 23 23 22 22 22 21 20 20 20 19 18 18 17 17 18 27 31 32 32 33 31 23 22 21 21 21 21 21 22
41 42 42 41 41 39 35 33 33 32 32 30 28 28 27 28 30 29 29 30 30 29 28 28 27 26 25 24 23 23 24 24 24 23 22 22 21 20 20 19 18 18 18 17 17 17 16 17 26 31 32 32 32 28 22 21 20 19 20 20 21 22
40 40 41 41 41 38 31 30 31 32 30 28 27 26 26 28 29 28 28 28 27 27 27 26 26 25 24 23 23 23 22 22 22 22 21 21 21 20 19 18 17 15 16 16 16 21 17 17 24 31 31 32 32 27 22 21 20 19 19 19 20 21
39 39 40 39 40 36 29 29 30 30 29 28 26 26 27 27 28 27 25 25 25 24 25 25 25 24 23 22 22 22 22 21 19 18 19 19 19 17 16 16 16 14 14 15 15 18 16 16 20 26 31 31 31 28 22 21 19 18 18 19 19 18
39 38 38 40 39 35 31 29 32 32 28 27 29 29 29 27 25 24 23 24 23 23 23 24 24 23 22 22 21 21 19 19 18 17 17 16 16 15 15 14 14 14 13 14 15 14 14 16 17 23 30 30 30 29 24 20 20 19 18 18 18 18
39 38 39 39 39 35 31 30 32 34 29 27 29 30 25 23 23 22 22 22 22 21 21 21 21 21 20 20 19 18 17 17 17 17 16 16 16 15 14 13 13 13 12 12 13 14 14 18 21 21 28 29 29 29 26 21 20 20 18 17 17 19
38 38 38 39 38 36 33 29 30 32 27 28 30 23 21 21 21 22 22 22 21 20 20 20 20 19 19 18 19 18 17 16 15 15 15 15 15 14 13 12 12 12 12 12 13 14 15 17 19 23 23 28 29 30 27 25 23 25 20 18 18 19
37 36 37 37 37 36 33 29 30 31 29 31 25 22 21 21 22 22 22 21 20 19 19 19 19 19 19 19 19 18 16 15 15 15 15 15 14 14 13 13 13 13 12 11 12 13 14 17 17 22 24 25 28 29 28 27 26 27 22 20 19 20
34 34 34 36 37 36 33 30 29 30 30 30 25 25 21 22 22 22 21 20 19 19 18 18 18 18 18 18 18 17 16 15 15 14 15 15 15 14 13 13 14 13 13 12 12 12 13 16 17 19 23 26 27 29 29 28 27 28 26 21 20 20
33 33 33 34 35 36 34 31 29 29 33 28 24 25 23 22 21 21 20 19 19 19 18 17 17 17 17 17 18 18 17 15 15 15 15 15 15 15 15 14 14 14 14 12 13 12 13 15 16 18 20 23 26 26 28 28 28 27 26 21 20 22
28 28 28 28 31 33 34 34 32 30 31 29 26 25 24 22 22 21 20 19 18 18 17 17 16 16 16 17 18 18 17 16 16 16 15 15 15 15 15 15 14 14 14 13 13 13 13 13 15 16 18 20 21 22 24 25 25 26 25 20 19 19
24 24 24 25 27 29 31 33 34 33 31 29 25 23 22 22 22 22 20 19 18 16 16 17 16 16 15 16 17 17 16 16 17 17 16 15 16 15 15 15 14 14 14 14 14 14 13 13 14 15 16 18 19 20 21 21 20 20 17 15 14 12
21 21 21 22 23 24 27 30 33 33 31 30 25 22 22 22 21 21 20 18 17 16 16 16 15 15 15 16 16 17 18 17 16 17 18 19 20 19 18 16 16 17 17 17 15 14 13 13 13 14 20 18 21 19 18 18 17 16 15 17 16 10
19 18 18 19 20 22 25 26 27 28 30 28 24 22 22 22 21 20 19 18 17 16 15 15 15 15 15 15 15 15 16 19 21 20 18 18 22 24 25 23 18 19 18 17 17 17 15 14 15 21 23 23 24 24 23 22 22 21 18 21 20 12
16 15 15 16 19 20 21 21 21 22 24 27 25 23 22 22 21 20 19 17 16 16 15 15 14 14 14 15 15 15 14 14 17 22 23 22 22 23 25 26 25 25 24 20 17 19 22 22 23 24 24 24 25 25 25 24 24 24 23 22 13 4
12 12 14 16 17 16 17 17 18 19 21 23 25 24 22 22 22 21 20 18 17 16 15 15 15 14 13 14 14 14 13 13 13 15 22 23 23 24 25 26 25 26 25 25 22 19 19 22 25 25 25 26 26 26 25 25 25 25 24 21 17 0
10 11 12 12 12 12 13 13 15 17 19 21 23 23 22 22 22 22 22 20 17 15 14 14 14 13 13 13 13 12 13 13 13 12 14 19 24 25 25 26 26 26 25 25 24 24 23 24 25 26 27 26 27 26 26 26 25 24 22 20 7 1
7 7 7 8 9 9 11 12 14 16 19 21 22 23 23 23 22 22 22 20 17 15 14 13 13 13 13 14 13 13 13 14 14 14 15 15 16 19 23 26 27 26 26 25 25 25 26 27 27 27 27 27 26 26 25 24 20 22 20 13 1 1
5 4 6 7 8 8 9 10 12 15 17 20 22 23 23 23 23 23 22 20 19 17 15 14 14 13 13 13 13 13 13 14 15 15 16 16 16 16 17 18 21 25 26 24 25 27 27 27 27 27 27 26 26 25 25 21 11 6 3 1 -2 -1
3 3 4 5 5 6 7 9 11 14 16 19 21 22 23 23 23 22 22 21 17 17 16 15 14 13 13 13 13 14 14 15 16 15 16 18 18 18 17 17 19 20 25 26 26 27 28 28 27 26 26 25 25 24 19 6 2 0 -1 -2 -3 -4
MSLP
1003.05 1003.21 1003.41 1003.77 1004.05 1004.21 1004.29 1004.61 1005.01 1005.29 1005.53 1005.69 1005.89 1005.69 1005.45 1006.05 1006.89 1007.41 1007.73 1007.97 1008.05 1008.13 1008.21 1008.49 1008.97 1009.45 1009.81 1010.29 1010.85 1011.37 1011.61 1011.85 1012.21 1012.61 1012.89 1013.69 1014.21 1014.73 1015.29 1015.85 1016.33 1016.69 1017.05 1017.33 1017.61 1017.89 1018.05 1018.37 1018.69 1019.09 1019.45 1019.69 1019.93 1020.21 1020.41 1020.73 1020.89 1020.97 1021.25 1021.61 1021.85 1022.29
1002.69 1002.89 1002.97 1003.05 1003.33 1003.85 1004.33 1004.53 1004.85 1004.85 1004.97 1005.49 1005.65 1005.81 1006.21 1006.37 1006.37 1006.57 1006.89 1007.13 1007.49 1007.69 1008.09 1008.41 1008.61 1008.85 1009.37 1009.85 1010.41 1010.89 1011.05 1011.33 1011.89 1012.33 1012.89 1013.09 1013.81 1014.29 1014.81 1015.33 1015.81 1016.33 1016.85 1017.29 1017.69 1017.93 1018.05 1018.17 1018.45 1018.77 1019.09 1019.45 1019.65 1019.85 1020.09 1020.37 1020.53 1020.69 1021.01 1021.53 1021.85 1022.21
1001.89 1002.61 1002.97 1003.33 1003.69 1004.01 1004.21 1004.25 1003.97 1004.09 1004.85 1004.97 1004.97 1005.17 1005.33 1005.57 1005.57 1006.01 1006.05 1006.45 1006.81 1007.17 1007.53 1007.69 1008.09 1008.53 1009.01 1009.61 1010.01 1010.33 1010.69 1011.17 1011.53 1011.97 1012.33 1013.05 1013.37 1013.81 1014.37 1014.85 1015.33 1015.93 1016.41 1016.93 1017.37 1017.77 1017.97 1018.13 1018.33 1018.57 1018.85 1019.13 1019.41 1019.69 1019.81 1020.09 1020.25 1020.49 1020.93 1021.33 1021.81 1022.13
1002.25 1002.61 1003.21 1003.41 1003.49 1003.61 1003.61 1003.69 1004.09 1004.29 1004.17 1003.93 1004.33 1004.85 1005.09 1005.01 1005.25 1005.33 1005.25 1005.69 1005.77 1006.25 1006.49 1007.05 1007.65 1008.25 1008.85 1009.21 1009.61 1009.93 1010.33 1010.77 1011.09 1011.57 1012.25 1012.45 1012.89 1013.33 1013.77 1014.29 1014.85 1015.37 1015.93 1016.49 1016.97 1017.53 1017.85 1018.05 1018.13 1018.33 1018.61 1018.89 1019.25 1019.53 1019.69 1019.85 1020.05 1020.33 1020.77 1021.17 1021.61 1022.05
1001.29 1002.45 1002.81 1003.05 1003.01 1003.05 1003.37 1003.85 1003.81 1003.49 1003.37 1003.69 1004.09 1004.33 1004.05 1004.05 1003.85 1004.05 1004.49 1005.05 1005.45 1005.61 1005.81 1006.45 1007.13 1007.65 1008.13 1008.61 1009.01 1009.37 1009.69 1010.17 1010.73 1011.21 1011.61 1012.09 1012.65 1013.13 1013.41 1013.85 1014.37 1014.93 1015.53 1016.05 1016.57 1017.13 1017.53 1017.85 1018.13 1018.29 1018.45 1018.73 1018.97 1019.21 1019.49 1019.69 1019.85 1020.09 1020.49 1020.93 1021.37 1021.81
1001.97 1001.45 1001.33 1001.93 1002.61 1002.81 1002.85 1002.69 1002.85 1003.05 1003.25 1003.33 1003.41 1003.45 1003.09 1003.49 1003.53 1003.85 1004.29 1004.49 1004.69 1004.93 1005.57 1006.09 1006.49 1007.13 1007.53 1007.89 1008.05 1008.49 1009.01 1009.65 1010.21 1010.73 1011.13 1011.65 1012.29 1012.77 1013.25 1013.73 1014.13 1014.61 1015.13 1015.61 1016.21 1016.73 1017.17 1017.61 1018.01 1018.25 1018.41 1018.53 1018.73 1019.01 1019.25 1019.57 1019.77 1019.97 1020.21 1020.53 1021.01 1021.45
1000.69 1000.45 1000.61 1001.01 1001.33 1001.93 1002.25 1002.33 1002.25 1002.33 1002.37 1002.65 1002.81 1002.41 1002.13 1002.49 1002.85 1003.45 1003.69 1004.01 1004.29 1004.77 1005.21 1005.57 1006.13 1006.57 1006.89 1007.05 1007.37 1007.81 1008.41 1009.01 1009.61 1010.21 1010.49 1011.13 1011.77 1012.33 1012.93 1013.57 1014.01 1014.37 1014.73 1015.13 1015.65 1016.33 1016.85 1017.21 1017.57 1017.89 1018.21 1018.45 1018.61 1018.77 1019.01 1019.33 1019.57 1019.77 1020.01 1020.29 1020.73 1021.17
1000.33 1000.17 1000.53 1000.81 1000.61 1000.53 1000.81 1001.33 1001.57 1001.57 1001.61 1001.57 1001.45 1001.57 1001.69 1001.97 1002.33 1002.85 1003.33 1003.73 1004.05 1004.45 1004.81 1005.13 1005.65 1005.89 1006.01 1006.25 1006.69 1007.13 1007.73 1008.37 1009.01 1009.61 1010.13 1010.57 1011.25 1011.93 1012.45 1012.89 1013.53 1013.89 1014.25 1014.73 1015.29 1015.77 1016.33 1016.81 1017.13 1017.45 1017.77 1018.09 1018.41 1018.61 1018.85 1019.09 1019.33 1019.65 1019.93 1020.25 1020.57 1020.97
998.81 998.61 999.05 999.69 999.41 999.45 999.93 1000.25 1000.85 1001.21 1001.05 1000.89 1000.81 1000.69 1000.89 1001.29 1001.93 1002.25 1002.69 1003.05 1003.41 1003.69 1004.05 1004.45 1004.69 1004.81 1005.17 1005.61 1005.93 1006.53 1007.29 1007.89 1008.41 1009.05 1009.57 1010.13 1010.69 1011.33 1011.97 1012.53 1012.93 1013.49 1013.85 1014.33 1014.89 1015.41 1015.93 1016.49 1016.89 1017.21 1017.57 1017.89 1018.09 1018.25 1018.49 1018.89 1019.25 1019.57 1019.93 1020.21 1020.57 1020.93
998.69 998.53 998.49 998.61 998.89 999.29 999.85 1000.13 1000.09 1000.09 1000.25 1000.13 1000.17 1000.29 1000.41 1000.77 1001.33 1001.65 1001.97 1002.29 1002.69 1002.85 1003.01 1003.37 1003.45 1003.89 1004.41 1005.01 1005.69 1006.33 1006.77 1007.41 1008.01 1008.53 1009.13 1009.77 1010.29 1010.81 1011.29 1011.81 1012.37 1013.01 1013.61 1014.09 1014.53 1015.09 1015.69 1016.25 1016.65 1017.01 1017.29 1017.53 1017.73 1017.97 1018.33 1018.69 1019.09 1019.53 1019.89 1020.25 1020.57 1020.93
998.53 998.41 998.57 998.65 998.69 998.77 998.73 998.97 999.09 999.17 999.29 999.25 999.21 999.69 999.93 1000.09 1000.57 1000.93 1001.45 1001.89 1002.13 1002.09 1002.09 1002.45 1003.13 1003.77 1004.45 1005.01 1005.53 1006.05 1006.49 1006.89 1007.41 1008.09 1008.69 1009.25 1009.73 1010.29 1010.77 1011.37 1011.93 1012.65 1013.41 1014.01 1014.45 1015.01 1015.53 1015.93 1016.21 1016.33 1016.53 1016.97 1017.45 1017.69 1018.05 1018.53 1018.93 1019.33 1019.73 1020.13 1020.57 1020.89
998.73 998.49 998.21 998.05 997.85 997.53 997.41 997.61 998.05 998.21 998.33 998.21 998.41 998.93 998.89 999.57 999.85 1000.13 1000.73 1001.17 1001.13 1001.13 1001.57 1002.29 1003.09 1003.69 1004.25 1004.89 1005.29 1005.61 1006.09 1006.61 1007.13 1007.69 1008.33 1008.85 1009.33 1009.89 1010.53 1011.13 1011.69 1012.21 1012.73 1013.53 1014.33 1014.85 1015.21 1015.49 1015.69 1015.89 1016.13 1016.33 1016.73 1017.29 1017.85 1018.33 1018.69 1019.01 1019.45 1019.89 1020.37 1020.73
998.97 998.65 998.25 997.81 997.33 996.97 996.77 996.61 996.41 996.73 997.29 997.49 997.77 998.13 998.25 998.97 999.01 999.49 999.85 999.97 999.89 1000.45 1001.29 1002.09 1002.57 1003.17 1003.77 1004.13 1004.81 1005.53 1006.05 1006.49 1007.01 1007.57 1008.13 1008.73 1009.21 1009.77 1010.37 1010.89 1011.49 1012.05 1012.65 1013.25 1013.85 1014.37 1014.77 1015.09 1015.37 1015.45 1015.61 1015.93 1016.37 1016.93 1017.45 1017.93 1018.41 1018.77 1019.13 1019.49 1019.89 1020.29
1000.21 999.45 998.85 998.13 997.37 996.69 996.41 996.25 996.05 996.41 996.73 996.69 997.09 997.09 997.73 998.57 998.73 999.01 999.05 999.05 999.65 1000.45 1000.97 1001.45 1002.13 1002.85 1003.37 1004.09 1004.65 1005.25 1005.85 1006.53 1007.17 1007.61 1008.09 1008.65 1009.17 1009.69 1010.25 1010.73 1011.13 1011.73 1012.41 1013.05 1013.65 1014.05 1014.29 1014.65 1014.81 1014.85 1015.05 1015.37 1015.81 1016.53 1017.13 1017.65 1018.13 1018.49 1018.85 1019.09 1019.41 1019.73
1001.97 1001.25 1000.13 998.89 997.85 996.97 996.21 995.73 995.65 995.73 995.77 996.05 996.01 996.85 997.81 998.01 998.29 998.45 998.61 998.97 999.61 1000.13 1000.77 1001.41 1001.97 1002.49 1003.13 1003.61 1004.25 1005.01 1005.73 1006.29 1006.93 1007.45 1007.97 1008.37 1008.85 1009.57 1010.09 1010.49 1011.05 1011.57 1012.13 1012.57 1013.09 1013.57 1013.97 1014.41 1014.37 1014.37 1014.61 1015.05 1015.57 1016.29 1017.09 1017.61 1017.89 1018.17 1018.53 1018.81 1019.21 1019.53
1002.21 1001.65 1001.05 1000.25 999.13 997.93 996.73 995.93 995.97 995.49 995.09 995.41 996.21 996.65 996.89 997.53 997.97 998.29 998.49 999.01 999.57 1000.09 1000.65 1001.17 1001.73 1002.25 1002.77 1003.49 1004.21 1004.89 1005.45 1006.05 1006.37 1006.89 1007.53 1008.29 1009.01 1009.41 1009.89 1010.33 1010.73 1011.25 1011.73 1012.17 1012.61 1013.13 1013.69 1014.25 1014.17 1014.17 1014.41 1014.85 1015.45 1016.13 1016.89 1017.49 1017.77 1018.09 1018.41 1018.73 1019.09 1019.41
1002.65 1001.97 1001.21 1000.41 999.77 998.85 997.77 996.73 996.29 996.21 996.29 996.21 995.97 996.21 996.73 997.25 997.53 997.97 998.29 998.85 999.49 1000.17 1000.69 1001.13 1001.57 1002.09 1002.81 1003.49 1004.09 1004.73 1005.21 1005.65 1006.25 1006.85 1007.33 1007.81 1008.25 1008.77 1009.21 1009.73 1010.33 1010.81 1011.33 1011.89 1012.45 1013.01 1013.57 1014.09 1014.05 1013.93 1014.17 1014.53 1015.09 1015.77 1016.61 1017.29 1017.61 1017.93 1018.29 1018.49 1018.77 1019.13
1003.05 1002.57 1001.85 1001.01 1000.21 999.25 998.45 997.73 996.85 996.33 995.53 995.93 996.13 996.53 996.73 997.13 997.57 997.89 998.45 998.85 999.37 999.77 1000.25 1000.77 1001.29 1001.85 1002.53 1003.25 1003.89 1004.45 1004.93 1005.41 1005.73 1006.29 1007.01 1007.69 1008.33 1008.85 1009.29 1009.85 1010.13 1010.57 1011.13 1011.69 1012.21 1012.81 1013.41 1013.89 1013.69 1013.57 1013.81 1014.13 1014.49 1015.17 1016.17 1016.73 1017.05 1017.37 1017.73 1018.05 1018.45 1018.77
1003.09 1002.49 1001.89 1001.17 1000.45 999.93 999.25 998.85 997.97 996.69 996.29 996.53 997.01 997.33 997.41 997.49 997.57 997.81 998.13 998.53 999.05 999.61 1000.13 1000.61 1001.09 1001.61 1002.21 1002.85 1003.49 1004.05 1004.49 1005.01 1005.61 1006.25 1006.89 1007.57 1008.13 1008.61 1009.09 1009.53 1009.97 1010.49 1011.05 1011.61 1012.17 1012.69 1013.29 1013.73 1013.33 1013.25 1013.53 1013.81 1014.01 1014.45 1015.49 1016.01 1016.45 1016.81 1017.25 1017.69 1018.01 1018.29
1002.89 1002.29 1001.97 1001.29 1000.45 1000.13 1000.21 999.69 998.73 997.65 997.01 997.17 997.49 997.69 997.85 997.81 997.73 998.01 998.29 998.49 999.01 999.49 1000.05 1000.53 1000.97 1001.41 1002.01 1002.61 1002.97 1003.41 1004.05 1004.73 1005.45 1005.97 1006.53 1006.97 1007.73 1008.45 1008.93 1009.45 1010.09 1010.57 1010.93 1011.33 1011.89 1012.37 1012.93 1013.37 1013.05 1012.93 1013.21 1013.49 1013.61 1014.17 1014.97 1015.49 1015.93 1016.37 1016.77 1017.21 1017.57 1017.85
1003.09 1002.65 1002.05 1001.37 1000.81 1000.25 1000.49 1000.01 999.01 998.17 997.81 998.13 998.37 998.45 998.13 997.85 997.85 998.09 998.33 998.85 999.45 999.97 1000.49 1000.93 1001.41 1001.81 1002.29 1002.69 1003.09 1003.61 1004.09 1004.61 1005.17 1005.93 1006.77 1007.25 1007.77 1008.37 1009.05 1009.57 1010.01 1010.53 1010.93 1011.25 1011.69 1012.13 1012.69 1013.01 1012.73 1012.65 1012.89 1013.05 1013.29 1013.97 1014.77 1015.17 1015.53 1015.97 1016.33 1016.73 1017.13 1017.41
1002.93 1002.17 1001.73 1001.41 1000.89 1000.73 1000.73 1000.41 999.57 998.65 998.33 998.61 998.89 998.21 997.57 998.05 998.41 998.53 998.69 998.89 999.33 999.93 1000.53 1001.01 1001.53 1002.09 1002.57 1003.09 1003.53 1003.97 1004.33 1004.97 1005.65 1006.21 1006.69 1007.25 1007.69 1008.33 1009.01 1009.57 1009.89 1010.25 1010.73 1011.09 1011.57 1011.81 1012.29 1012.57 1012.49 1012.33 1012.49 1012.73 1012.93 1013.61 1014.37 1014.85 1015.21 1015.53 1015.85 1016.21 1016.69 1017.05
1002.97 1002.73 1002.29 1001.73 1001.25 1001.01 1000.81 1000.57 999.81 998.57 998.45 998.21 998.01 997.25 997.89 998.53 998.65 998.73 998.93 999.25 999.69 1000.13 1000.57 1001.05 1001.41 1001.89 1002.53 1002.93 1003.33 1003.89 1004.57 1005.05 1005.53 1006.21 1006.73 1007.33 1007.93 1008.37 1008.89 1009.33 1009.81 1010.25 1010.69 1010.97 1011.29 1011.69 1012.13 1012.25 1012.17 1012.01 1011.97 1012.21 1012.45 1013.01 1013.77 1014.49 1014.81 1015.13 1015.49 1015.89 1016.37 1016.57
1002.61 1002.17 1001.69 1001.41 1001.25 1001.09 1000.93 1000.65 999.81 998.85 998.49 998.37 997.13 997.57 998.93 998.93 998.93 999.05 999.25 999.53 999.97 1000.45 1000.93 1001.41 1001.93 1002.37 1002.73 1003.13 1003.45 1003.97 1004.61 1005.17 1005.65 1006.13 1006.65 1007.29 1007.85 1008.37 1008.89 1009.33 1009.73 1010.13 1010.61 1010.97 1011.17 1011.53 1011.93 1012.09 1011.97 1011.81 1011.69 1011.89 1012.09 1012.49 1013.21 1014.05 1014.41 1014.77 1015.29 1015.73 1016.05 1016.09
1002.77 1002.21 1001.93 1001.53 1001.29 1001.13 1000.97 1000.85 999.93 999.17 999.09 998.57 998.61 999.57 999.69 999.73 999.81 999.85 999.81 999.85 1000.13 1000.57 1001.09 1001.69 1002.17 1002.69 1003.17 1003.53 1003.77 1004.01 1004.65 1005.33 1005.85 1006.33 1006.73 1007.13 1007.73 1008.29 1008.89 1009.33 1009.65 1009.93 1010.37 1010.77 1010.97 1011.21 1011.53 1011.73 1011.85 1011.69 1011.65 1011.61 1011.81 1012.05 1012.77 1013.41 1013.97 1014.25 1014.85 1015.25 1015.49 1015.53
1003.09 1002.65 1002.01 1001.81 1001.61 1001.25 1001.05 1001.13 1000.41 999.65 999.33 998.69 999.61 1000.01 1000.09 999.97 1000.13 1000.21 1000.33 1000.49 1000.69 1001.01 1001.37 1001.77 1002.21 1002.69 1003.13 1003.53 1003.93 1004.37 1004.93 1005.53 1005.89 1006.29 1006.61 1007.01 1007.41 1008.05 1008.77 1009.21 1009.45 1009.61 1009.77 1010.01 1010.45 1010.85 1011.13 1011.29 1011.49 1011.41 1011.37 1011.37 1011.45 1011.69 1012.21 1012.85 1013.21 1013.49 1014.13 1014.65 1014.97 1015.09
1003.53 1002.85 1002.33 1001.81 1001.57 1001.41 1001.17 1001.21 1001.09 1000.25 999.65 999.21 999.65 999.73 999.89 1000.01 1000.09 1000.17 1000.29 1000.69 1001.09 1001.45 1001.89 1002.21 1002.45 1002.73 1002.97 1003.29 1003.57 1004.17 1004.97 1005.57 1005.89 1006.25 1006.65 1006.89 1007.21 1007.57 1007.97 1008.49 1008.81 1008.85 1009.17 1009.69 1009.77 1010.17 1010.73 1010.93 1011.09 1011.05 1011.01 1011.05 1011.17 1011.49 1011.85 1012.37 1012.69 1012.93 1013.49 1014.17 1014.53 1014.85
1003.89 1003.45 1002.81 1002.09 1001.85 1001.61 1001.25 1001.13 1001.21 1000.77 999.81 999.97 1000.13 1000.13 1000.09 1000.09 1000.17 1000.25 1000.41 1000.93 1001.33 1001.65 1002.09 1002.41 1002.89 1003.13 1003.21 1003.37 1003.53 1003.73 1004.17 1004.69 1005.41 1005.77 1006.25 1006.53 1006.57 1006.85 1007.09 1007.57 1008.09 1008.29 1008.61 1009.05 1009.25 1009.73 1010.09 1010.41 1010.65 1010.61 1010.65 1010.81 1011.01 1011.41 1011.69 1012.01 1012.25 1012.53 1013.05 1013.77 1014.21 1014.53
1004.81 1004.33 1003.93 1003.17 1002.25 1001.97 1001.41 1000.93 1000.77 1000.69 1000.41 1000.29 1000.37 1000.37 1000.29 1000.13 1000.05 1000.25 1000.69 1000.93 1001.37 1001.81 1002.09 1002.25 1002.65 1003.21 1003.61 1003.69 1003.61 1003.73 1004.13 1004.61 1005.01 1005.37 1005.93 1006.17 1006.33 1006.61 1006.73 1007.01 1007.37 1007.61 1007.97 1008.45 1008.77 1009.33 1009.81 1010.17 1010.29 1010.29 1010.29 1010.45 1010.69 1011.05 1011.37 1011.65 1012.01 1012.37 1012.85 1013.45 1013.81 1014.33
1005.77 1005.21 1004.61 1003.89 1002.85 1002.53 1001.97 1001.13 1000.45 1000.13 1000.09 1000.01 1000.17 1000.33 1000.33 1000.05 999.89 999.77 1000.09 1000.57 1001.05 1001.49 1001.73 1001.85 1002.17 1002.57 1002.97 1003.33 1003.41 1003.41 1003.69 1003.97 1004.21 1004.41 1004.53 1004.65 1004.81 1005.37 1005.85 1006.21 1006.65 1006.61 1006.69 1007.17 1007.81 1008.53 1009.25 1009.69 1009.77 1009.77 1009.69 1009.89 1010.25 1010.65 1010.89 1011.17 1011.65 1012.13 1012.77 1013.33 1013.97 1014.57
1005.97 1005.61 1005.21 1004.45 1003.73 1003.33 1002.45 1001.29 1000.37 1000.01 999.93 999.81 1000.01 1000.33 1000.17 999.89 999.89 999.85 999.89 1000.33 1000.81 1001.17 1001.45 1001.53 1001.89 1002.13 1002.49 1002.77 1003.01 1002.93 1002.81 1002.89 1003.17 1003.25 1003.45 1003.61 1003.65 1003.49 1003.65 1004.29 1004.89 1005.17 1005.49 1005.89 1006.61 1007.41 1008.25 1008.65 1008.77 1008.73 1008.81 1009.01 1009.33 1009.73 1010.09 1010.69 1011.25 1011.89 1012.49 1012.97 1013.73 1014.65
1006.33 1005.89 1005.49 1004.81 1004.25 1003.65 1002.65 1001.69 1001.17 1000.73 1000.33 1000.09 1000.09 1000.29 1000.09 999.81 999.93 999.93 999.81 1000.01 1000.21 1000.53 1001.09 1001.37 1001.61 1001.89 1002.13 1002.25 1002.45 1002.81 1003.13 1003.29 1003.45 1003.61 1003.77 1003.93 1004.05 1004.05 1004.09 1004.09 1004.13 1004.33 1005.13 1005.93 1006.29 1006.25 1006.33 1006.89 1007.49 1008.37 1008.81 1009.29 1009.69 1009.93 1010.13 1010.41 1010.85 1011.37 1011.93 1012.33 1013.01 1014.01
1006.49 1006.41 1005.65 1004.65 1004.21 1003.57 1002.97 1002.45 1001.81 1001.41 1001.09 1000.65 1000.21 1000.09 999.89 999.73 999.61 999.53 999.49 999.77 999.81 999.81 1000.13 1000.53 1000.97 1001.33 1001.53 1001.65 1001.93 1002.29 1002.69 1003.21 1003.37 1003.37 1003.49 1003.69 1003.97 1004.25 1004.25 1004.21 1004.49 1004.77 1004.89 1005.13 1006.01 1006.93 1007.33 1007.37 1007.65 1008.05 1008.65 1009.17 1009.45 1009.65 1009.85 1010.09 1010.41 1010.85 1011.25 1011.89 1012.97 1014.01
1007.01 1006.53 1005.61 1004.57 1004.09 1003.73 1003.21 1002.65 1001.77 1001.37 1001.29 1001.01 1000.29 999.77 999.49 999.21 999.01 998.69 998.69 998.97 999.09 999.41 999.73 999.81 1000.13 1000.57 1000.97 1001.25 1001.53 1001.89 1002.25 1002.65 1003.17 1003.33 1003.25 1003.37 1003.61 1003.89 1004.13 1004.37 1004.49 1004.53 1004.73 1005.21 1005.61 1006.09 1006.89 1007.33 1007.53 1007.81 1008.25 1008.65 1008.89 1009.09 1009.29 1009.57 1009.97 1010.33 1010.93 1011.73 1012.53 1013.81
1006.69 1006.33 1005.89 1005.37 1004.77 1004.05 1003.29 1002.57 1001.25 1000.81 1001.17 1000.81 1000.17 999.53 999.09 998.65 998.45 998.05 997.77 998.13 998.57 998.85 999.09 999.33 999.61 999.93 1000.25 1000.69 1001.05 1001.53 1001.77 1002.09 1002.37 1002.85 1003.21 1003.21 1003.29 1003.37 1003.65 1004.09 1004.41 1004.61 1004.89 1005.13 1005.49 1005.77 1005.77 1006.17 1007.01 1007.61 1008.13 1008.49 1008.57 1008.57 1008.89 1009.29 1009.69 1010.21 1010.85 1011.57 1012.69 1013.61
1006.69 1006.21 1005.85 1005.65 1005.21 1004.29 1003.13 1002.01 1000.57 1000.33 1000.77 1000.17 999.49 998.85 998.33 997.89 997.61 997.33 997.05 997.21 997.73 998.21 998.53 998.61 998.73 999.05 999.41 999.73 1000.17 1000.57 1000.89 1001.17 1001.41 1001.89 1002.25 1002.81 1003.09 1003.25 1003.45 1003.69 1004.01 1004.45 1004.89 1005.29 1005.49 1005.65 1006.01 1006.25 1006.61 1007.13 1007.65 1008.05 1008.25 1008.41 1008.81 1009.37 1010.01 1010.61 1011.21 1011.77 1012.97 1013.77
1006.61 1005.89 1005.37 1005.25 1004.61 1003.65 1002.73 1001.53 1000.17 1000.41 1000.61 999.81 998.93 998.13 997.41 997.01 996.81 996.69 996.53 996.57 996.93 997.33 997.57 997.81 998.05 998.29 998.65 999.17 999.61 1000.09 1000.45 1000.73 1001.09 1001.49 1001.69 1001.77 1001.89 1002.17 1002.57 1003.01 1003.57 1004.09 1004.37 1004.73 1005.09 1005.49 1005.73 1006.05 1006.45 1006.97 1007.57 1007.97 1008.13 1008.41 1008.85 1009.73 1010.77 1011.77 1012.53 1013.13 1013.77 1013.93
1006.33 1005.37 1004.73 1004.61 1003.89 1002.89 1001.89 1000.57 999.65 1000.21 999.97 999.13 998.25 997.33 996.57 996.17 996.05 996.05 995.97 996.09 996.57 996.85 997.05 997.29 997.53 997.77 998.09 998.49 998.97 999.49 999.97 1000.41 1000.77 1001.05 1001.13 1001.25 1001.57 1001.85 1002.37 1002.97 1003.41 1003.77 1004.13 1004.53 1005.05 1005.25 1005.61 1006.13 1006.65 1007.17 1007.65 1007.93 1008.09 1008.53 1009.33 1010.81 1011.93 1012.49 1013.05 1013.61 1014.21 1014.33
Wind_Speed
7 7 8 7 7 7 8 7 6 6 7 8 10 16 18 14 10 9 9 11 12 13 16 17 15 13 13 11 10 10 12 13 12 12 11 8 9 10 9 10 10 10 10 10 10 10 11 10 10 10 9 9 8 7 7 7 7 7 6 5 6 5
8 9 10 11 12 10 7 7 6 10 11 9 11 9 7 9 14 15 15 15 13 13 11 12 13 14 13 12 11 11 13 12 11 11 10 12 9 10 10 11 12 12 11 10 10 10 10 11 10 11 10 9 8 8 8 7 7 7 7 6 5 5
9 9 8 6 3 5 6 9 14 13 8 11 13 15 15 15 15 14 15 14 15 15 15 16 14 14 12 10 11 12 12 10 11 11 10 8 11 11 12 12 12 12 12 11 11 11 11 11 11 10 10 9 9 8 8 7 7 8 6 7 6 5
8 6 4 4 5 7 10 12 8 9 13 16 14 12 12 15 14 15 16 15 15 17 17 15 12 11 10 12 12 12 11 11 11 10 9 12 11 12 13 13 12 12 13 12 12 11 11 11 11 10 10 10 10 9 7 8 8 7 7 7 6 6
6 3 4 6 9 9 8 7 10 13 15 13 12 14 17 17 18 17 14 14 14 16 16 14 12 12 13 14 13 14 13 12 10 10 12 11 10 10 12 13 12 13 13 12 12 11 11 11 11 10 10 10 10 10 8 8 8 9 9 8 7 7
3 2 4 7 8 10 12 12 12 12 11 12 13 16 19 16 15 14 13 14 16 16 13 14 13 13 14 15 15 16 14 12 11 11 12 12 10 12 10 11 12 12 13 13 12 12 11 11 10 10 9 10 10 10 9 8 8 8 8 9 8 8
5 7 7 9 10 10 10 10 12 12 14 12 14 17 18 16 14 12 14 14 16 13 14 14 13 14 15 17 14 16 14 13 12 11 13 12 12 12 11 10 10 12 13 13 14 13 12 12 11 11 10 8 8 9 9 9 8 8 8 8 8 8
5 4 7 8 8 9 10 11 11 12 12 15 16 16 15 15 12 13 13 12 13 13 15 15 14 16 18 18 15 16 15 14 13 13 11 13 13 12 12 13 12 13 14 12 13 12 12 12 12 11 11 10 9 8 8 8 8 8 8 8 8 7
8 7 7 8 8 8 9 10 11 11 12 14 14 15 15 13 12 13 14 14 15 15 16 15 17 18 17 16 16 14 12 13 13 13 13 12 13 14 13 12 13 11 13 13 12 13 13 12 11 11 10 10 10 10 10 9 8 7 6 6 6 5
9 8 10 10 12 11 10 10 12 13 14 15 14 13 12 10 12 14 15 15 16 16 17 17 18 17 16 14 12 12 13 12 12 13 12 12 14 14 15 15 15 12 11 12 12 12 11 11 10 10 10 11 11 10 10 9 9 8 7 6 6 6
10 11 11 12 12 12 14 13 13 13 12 13 13 11 14 13 12 14 14 14 15 17 17 16 13 11 11 11 12 12 13 14 13 12 12 13 13 12 13 13 14 13 12 10 11 11 10 11 12 10 11 10 10 10 10 9 9 9 8 7 7 6
12 12 13 13 13 14 14 13 12 12 14 15 14 12 14 11 14 14 14 15 18 17 15 12 10 11 11 11 13 14 13 13 13 13 13 13 13 12 12 12 12 13 14 14 12 11 11 11 9 12 20 16 12 11 9 9 9 8 8 8 7 7
12 13 13 14 14 14 14 14 14 13 13 13 12 13 13 11 14 14 15 18 18 15 11 11 12 12 14 14 13 11 12 13 12 13 13 12 12 13 12 12 13 12 11 13 13 14 12 10 9 21 22 22 20 12 11 11 10 9 9 8 8 8
18 15 14 15 16 16 12 12 12 11 12 13 12 14 9 9 12 14 16 17 12 10 12 12 12 12 13 11 13 13 12 11 11 12 13 12 13 12 11 13 13 12 12 11 11 12 11 11 16 23 23 22 22 16 9 7 9 9 8 8 8 7
17 19 19 16 16 16 16 16 13 11 12 12 15 6 7 12 13 14 14 12 11 12 11 11 12 13 12 13 13 12 12 13 13 13 13 14 12 11 13 13 12 12 12 12 14 13 12 10 18 23 24 23 21 20 14 9 8 8 8 8 8 8
17 18 18 18 18 18 18 17 12 14 12 9 4 8 12 11 12 12 12 10 10 10 11 11 12 13 12 11 11 12 13 13 15 13 11 11 11 13 12 12 14 13 13 13 13 12 11 11 17 23 23 22 22 21 15 8 9 8 7 8 7 7
17 19 20 20 20 18 16 15 10 9 9 5 6 8 9 10 11 11 11 11 10 9 11 12 12 12 12 12 12 13 13 14 12 13 12 13 14 15 15 15 14 13 13 12 11 10 10 9 19 23 23 23 22 21 15 9 8 7 7 7 7 8
16 16 17 16 17 18 15 13 12 8 10 5 7 6 8 8 9 9 7 9 10 12 12 12 12 12 12 13 13 14 14 14 14 15 12 11 10 9 9 9 10 13 13 12 11 11 10 9 20 23 23 24 23 23 11 9 9 9 8 8 9 9
15 16 15 16 16 16 16 15 12 7 3 1 2 1 3 5 8 8 9 10 10 11 11 12 13 13 13 14 15 15 15 15 14 12 10 12 11 12 11 12 11 10 12 12 11 11 9 9 18 24 24 23 24 18 9 10 8 8 9 9 8 8
16 17 15 16 17 14 12 13 11 7 3 1 1 3 4 5 8 6 7 9 9 10 10 11 12 13 14 14 16 16 13 11 9 11 11 14 13 12 11 10 10 9 10 12 12 11 10 9 16 24 23 23 24 15 10 9 8 8 9 7 7 6
16 15 15 16 17 16 11 10 7 5 4 2 1 2 5 7 6 6 7 5 4 5 6 7 8 10 11 13 12 11 12 13 12 10 9 9 10 10 9 9 10 9 9 9 10 13 11 9 14 23 22 24 23 15 9 9 9 8 8 8 7 7
16 19 18 17 18 14 11 8 5 2 1 2 3 5 7 5 3 3 4 5 7 7 8 8 9 9 10 10 9 9 10 9 10 11 11 10 10 10 10 10 10 12 10 9 10 10 10 11 10 15 23 22 23 20 11 9 10 10 10 9 8 7
14 14 15 14 14 14 11 8 9 9 3 1 2 7 4 2 3 4 4 5 6 7 8 7 9 11 9 9 10 10 9 9 11 11 11 11 9 9 10 11 10 10 9 9 10 9 10 10 11 14 23 22 24 23 18 9 10 9 9 8 8 7
17 18 18 15 14 13 11 9 11 12 9 5 7 6 1 1 2 4 5 6 6 6 6 6 5 6 8 9 10 11 10 8 9 11 11 10 11 12 12 11 10 10 10 9 9 9 10 11 15 11 20 23 24 23 22 11 10 10 9 8 8 7
18 19 17 16 15 13 12 9 11 11 8 9 8 4 1 2 2 3 4 5 7 7 7 7 8 8 7 8 9 11 11 9 10 10 10 11 11 12 12 12 11 11 11 10 9 8 9 10 11 16 12 21 23 23 21 20 14 19 10 9 8 8
17 17 18 16 14 13 12 9 11 10 8 11 4 1 2 3 3 4 4 4 5 6 7 8 9 9 9 10 10 10 11 11 10 10 10 11 12 11 12 10 11 11 11 8 9 7 6 8 8 15 19 17 24 23 23 22 22 21 11 8 6 6
19 19 19 17 15 12 11 9 9 12 11 7 1 1 2 3 4 4 5 5 5 6 6 6 7 9 9 10 12 12 11 11 12 11 10 11 11 12 12 12 12 13 12 12 13 11 10 8 10 10 16 22 21 23 23 22 22 20 19 11 7 7
17 17 19 19 17 15 11 9 7 11 13 4 2 2 2 3 4 4 5 5 6 7 7 8 7 7 9 11 10 11 11 13 13 12 11 12 12 12 13 13 13 12 12 12 11 11 11 11 10 10 12 14 17 17 22 22 21 19 17 13 10 13
17 19 20 22 20 16 14 13 9 8 9 9 5 3 4 5 5 5 5 7 7 7 8 10 9 8 8 9 9 9 10 10 11 11 12 12 12 12 12 12 13 13 12 13 11 10 10 10 10 10 11 10 11 11 13 15 13 17 16 9 7 8
17 19 20 20 20 17 17 17 15 12 9 7 5 4 4 6 7 8 8 9 8 8 9 10 10 12 11 11 11 11 11 11 13 14 16 17 17 16 15 14 14 15 15 14 13 12 11 11 11 12 12 12 11 11 10 10 10 9 8 8 7 7
17 17 19 21 19 19 18 18 15 12 9 8 4 4 6 8 8 8 8 8 8 9 9 9 10 10 12 11 11 10 11 13 14 15 13 13 12 16 18 18 16 15 14 14 15 15 14 13 14 14 13 15 18 15 13 12 11 9 8 11 13 9
15 17 19 18 17 16 18 16 16 15 14 8 5 5 8 8 7 8 9 9 9 9 9 9 9 9 10 11 10 10 8 7 11 9 9 9 13 17 14 13 13 13 12 12 12 14 17 17 14 20 27 25 24 23 20 16 17 15 12 15 19 11
17 18 21 20 17 15 15 17 17 17 16 14 9 7 9 9 8 9 9 9 10 11 11 10 10 10 10 10 10 9 9 8 8 14 15 11 12 15 17 17 14 16 18 14 13 9 4 8 20 26 25 25 25 24 23 22 21 21 19 20 13 7
20 19 20 19 15 15 17 17 19 17 15 15 14 10 11 12 11 11 10 10 10 11 11 10 11 10 10 10 10 10 10 10 9 8 12 13 13 18 17 16 15 19 20 17 14 13 10 19 26 27 27 27 26 24 24 23 22 21 22 21 16 9
13 14 17 17 18 19 19 21 20 19 12 15 15 13 13 14 13 14 12 10 10 10 12 11 11 11 11 11 11 11 11 11 11 11 10 10 15 19 18 20 17 18 18 18 19 20 20 23 25 28 26 26 26 26 24 23 23 23 22 19 10 9
17 18 16 17 19 21 20 20 21 16 12 16 16 15 14 16 15 16 13 11 12 11 11 12 11 12 12 11 11 11 12 12 12 12 12 11 11 12 14 17 20 21 22 21 21 22 23 26 27 27 27 27 26 26 25 22 17 20 18 13 9 9
20 19 20 21 22 21 20 21 22 13 15 17 18 17 16 16 15 13 14 17 12 11 12 11 11 11 11 11 11 11 12 12 11 11 12 13 14 14 13 12 14 20 23 19 18 22 26 26 27 27 26 27 26 26 26 23 13 11 8 7 6 8
20 21 20 19 18 18 20 21 20 13 15 18 18 17 16 15 13 13 12 10 13 11 10 10 11 11 11 11 11 11 11 11 11 12 12 12 11 11 11 11 11 12 18 26 22 26 26 27 26 25 25 26 27 26 25 13 9 9 7 8 6 7
Wind_Direction
227 214 213 210 213 212 209 199 193 200 209 208 200 201 203 197 194 201 204 202 205 206 206 205 206 207 207 204 197 188 197 198 197 196 198 177 179 175 173 176 178 179 181 177 175 173 173 169 169 166 167 168 166 169 165 166 159 148 136 135 131 137
226 220 211 203 204 203 198 192 189 204 205 199 210 215 204 191 195 195 201 203 206 211 209 210 208 208 203 200 193 196 201 200 193 192 185 190 170 181 172 176 180 178 177 179 175 177 175 172 170 170 168 167 170 168 167 171 158 147 141 136 133 137
233 229 222 221 207 193 190 193 200 205 193 208 207 203 202 203 205 198 207 199 206 205 207 209 206 206 201 197 198 201 202 196 192 192 190 157 185 172 176 179 180 178 177 175 178 179 178 174 173 173 167 169 169 173 167 163 157 147 143 138 138 138
246 240 223 197 192 204 204 206 199 198 203 210 208 208 208 208 207 204 207 202 206 204 209 207 202 199 195 200 198 203 200 196 192 185 169 186 182 176 179 179 177 176 175 176 178 180 180 181 176 172 168 169 170 169 167 164 158 150 145 143 146 143
221 207 215 219 216 218 212 203 205 208 210 208 209 207 216 209 211 209 206 203 205 209 208 202 196 192 195 197 201 204 201 196 188 177 183 183 180 181 180 179 175 174 173 175 177 179 181 180 176 176 172 173 171 169 169 166 162 157 152 154 156 156
247 203 210 216 221 220 214 210 210 214 213 212 209 212 219 214 216 208 204 206 209 209 201 200 198 191 195 199 202 203 199 191 186 179 183 182 174 178 180 175 174 170 174 175 176 179 178 176 176 174 178 175 171 168 166 163 163 160 159 158 160 162
231 230 220 214 218 220 222 221 217 211 214 210 211 219 220 214 213 205 207 206 210 205 201 202 194 197 199 203 201 202 194 191 184 182 183 175 177 177 169 173 172 173 174 179 178 176 177 179 174 174 174 173 171 166 161 163 162 163 163 162 161 166
249 245 238 230 224 222 223 226 227 222 218 214 211 218 220 216 206 205 207 207 207 204 203 202 196 202 203 203 200 199 193 188 184 182 182 176 174 171 174 171 174 178 180 177 177 177 177 176 176 174 171 168 164 162 163 162 161 159 157 159 160 160
260 247 245 244 249 242 236 229 228 233 229 228 220 217 216 212 201 203 203 204 205 205 205 200 202 204 204 202 201 194 186 185 184 179 179 175 172 171 172 176 175 180 178 177 172 176 175 174 173 169 166 166 167 166 164 161 157 152 150 147 145 144
253 243 241 242 243 241 237 231 227 222 223 230 229 224 217 204 196 202 204 203 205 208 208 205 207 204 202 200 194 187 186 181 178 180 174 169 173 175 175 174 176 174 174 174 175 174 169 169 169 166 167 169 169 165 162 161 158 155 151 150 151 155
246 249 250 245 241 238 234 232 229 228 231 233 232 214 216 204 198 203 204 207 210 213 211 208 205 201 196 190 187 183 183 182 177 173 172 175 176 175 176 173 171 166 169 170 171 166 167 170 175 176 171 159 163 166 163 159 157 155 155 154 155 163
258 257 253 249 243 242 242 237 235 231 227 232 227 218 221 191 203 202 202 205 212 213 208 200 191 191 188 185 187 188 182 177 174 173 173 176 175 171 169 168 170 170 170 168 168 168 171 179 178 176 173 170 164 161 159 158 160 157 155 152 160 175
281 275 271 266 262 250 239 234 236 237 231 234 228 220 218 193 208 202 203 210 213 208 190 183 189 182 186 190 184 179 177 177 173 173 173 172 170 169 168 166 168 171 170 169 168 173 179 177 175 177 176 174 169 161 162 162 159 156 158 163 168 174
327 304 285 275 268 267 262 257 248 238 234 233 227 226 206 195 208 206 210 214 207 192 187 189 180 181 185 176 182 178 176 168 170 174 173 169 169 170 164 169 171 167 166 167 171 176 177 178 180 179 178 176 173 166 150 143 156 159 162 166 171 176
346 337 319 299 289 282 276 267 261 248 237 230 229 202 169 201 206 211 215 210 195 193 184 178 178 182 177 182 175 170 167 171 172 174 172 176 171 158 167 171 165 170 168 169 172 179 180 179 184 183 180 176 173 166 157 160 155 155 162 166 171 180
343 339 334 325 308 295 289 289 277 260 247 231 183 172 201 194 206 206 212 201 196 187 182 178 178 180 180 171 167 167 171 173 180 177 171 160 159 169 170 170 172 169 172 175 177 177 177 179 188 185 181 176 171 167 158 158 159 155 160 165 174 187
335 338 337 337 329 315 307 303 289 277 290 249 212 200 191 200 200 204 201 193 190 177 179 178 177 176 171 170 169 170 175 177 172 169 171 170 173 174 176 173 174 175 173 173 172 171 176 182 190 185 182 178 170 166 153 153 153 157 165 172 181 195
329 328 327 326 330 328 320 307 304 288 264 233 211 201 194 189 194 201 189 190 187 186 183 177 177 173 169 169 171 174 177 177 176 173 170 167 170 172 165 172 172 170 171 170 169 168 176 183 192 185 182 179 176 167 152 158 162 164 168 174 187 192
324 325 325 327 330 331 328 322 313 294 296 354 301 201 195 176 194 197 190 193 185 185 181 180 176 174 172 172 173 178 177 175 174 170 162 165 171 170 175 174 171 168 166 167 170 170 174 182 191 184 181 179 178 171 143 158 157 158 159 171 170 182
326 327 329 327 327 328 325 326 337 357 33 30 102 157 185 188 205 195 188 195 186 182 177 178 177 175 173 173 180 180 177 170 164 169 168 171 169 173 174 163 159 163 167 168 171 174 170 181 188 183 181 179 179 164 153 157 154 151 161 161 176 175
321 320 323 327 328 327 326 320 337 2 5 356 313 217 207 214 208 189 191 180 159 165 166 170 174 175 174 179 179 172 168 170 169 159 158 166 165 166 157 158 160 160 164 167 165 171 171 175 186 182 180 180 180 167 156 160 162 156 164 169 174 182
323 328 331 330 324 320 315 310 328 12 326 267 227 210 222 231 205 165 144 146 150 154 156 163 169 171 174 172 163 164 163 152 148 158 164 163 162 157 159 161 162 164 166 160 162 170 166 175 183 181 180 180 181 167 159 159 168 174 169 169 175 188
321 318 317 317 317 317 315 315 312 301 272 202 234 258 251 195 148 141 141 135 142 151 160 160 171 167 166 164 161 154 151 159 161 158 162 158 156 151 157 161 161 159 161 162 165 159 172 180 174 183 181 181 183 174 166 169 176 169 167 165 174 189
320 321 321 322 323 320 317 319 312 305 319 337 291 289 270 99 122 128 128 139 143 146 150 155 149 153 153 152 150 153 158 157 155 161 158 158 158 161 162 161 161 160 159 163 165 167 172 186 185 175 182 183 184 181 171 170 174 166 160 172 182 189
320 320 319 320 322 321 315 319 307 306 321 303 310 1 49 56 79 106 126 136 143 148 150 150 151 153 152 155 159 156 155 153 154 158 160 158 160 162 163 166 166 163 163 166 173 170 173 179 183 182 181 184 184 185 177 173 170 177 170 179 183 176
318 317 315 315 316 315 314 316 304 300 309 290 312 90 89 105 104 118 126 139 146 143 149 152 153 152 154 156 156 157 154 160 161 162 167 165 164 165 166 174 172 172 172 161 166 165 160 173 173 184 182 184 184 187 181 178 178 181 171 170 168 162
317 315 312 312 316 315 312 312 301 301 297 285 228 178 135 127 134 133 145 149 150 152 150 149 157 160 160 164 161 160 162 163 165 167 174 170 174 174 175 177 178 182 180 175 176 173 172 174 175 177 183 182 184 186 185 180 180 182 172 164 156 139
316 316 316 315 318 319 314 304 291 290 289 327 300 216 186 150 143 159 164 157 158 161 153 156 161 166 170 169 173 172 170 168 172 174 175 180 183 181 181 178 182 184 180 184 175 173 172 172 172 174 175 182 182 184 187 184 182 178 167 142 150 158
319 316 314 310 311 315 314 309 292 268 282 292 256 220 197 182 173 175 174 173 167 162 166 169 170 169 177 181 179 176 172 175 177 176 178 185 185 188 189 184 182 184 183 182 179 168 167 171 174 172 172 173 175 177 182 180 177 174 165 147 142 138
313 310 311 307 307 314 312 306 303 299 290 280 243 212 199 202 195 192 193 185 176 177 181 183 176 177 165 185 186 184 184 186 185 185 188 187 187 184 189 185 188 189 186 181 173 168 164 175 177 179 175 173 171 173 173 165 159 156 138 139 132 125
306 304 304 300 302 307 302 298 301 308 297 284 256 209 211 220 210 205 194 186 179 187 188 187 183 189 182 189 194 204 198 189 191 198 204 207 193 190 185 186 192 191 185 176 172 169 174 175 184 189 178 174 174 170 162 159 157 146 143 139 131 113
301 302 298 293 297 298 297 304 309 312 314 302 261 226 234 233 219 210 207 195 193 190 182 191 190 189 189 193 194 194 203 214 215 218 213 211 213 217 218 203 195 186 172 174 183 177 174 182 183 175 177 175 173 170 163 155 148 147 147 159 147 129
305 302 295 291 294 294 299 299 295 297 298 303 277 238 237 232 226 223 217 201 204 194 189 188 188 190 192 193 190 190 193 195 212 221 224 223 214 216 217 205 201 186 182 175 166 184 218 175 164 167 167 170 171 169 164 161 160 158 161 146 122 99
299 295 291 294 298 298 296 291 288 285 290 294 287 252 238 230 226 230 219 210 208 192 191 193 190 184 186 191 188 190 187 190 192 206 216 215 205 203 208 205 195 188 183 183 169 156 147 157 161 162 165 168 169 168 165 162 161 160 152 148 129 109
290 288 291 293 295 294 291 287 280 282 286 283 279 267 248 237 232 234 232 214 202 197 193 190 189 188 187 186 185 189 187 188 187 188 188 200 201 196 198 200 194 184 180 170 167 165 158 159 161 165 167 170 169 162 158 157 155 151 147 133 113 131
293 290 285 285 287 286 284 282 281 286 289 282 278 270 254 247 239 234 233 216 202 195 195 196 192 188 191 190 189 188 188 191 188 183 177 170 172 186 192 190 188 184 176 170 164 161 161 159 161 165 168 167 161 154 152 148 142 141 140 128 136 135
288 284 284 289 288 284 282 279 278 287 290 283 280 272 263 252 247 243 238 227 207 200 201 196 193 192 187 185 187 187 188 189 185 179 180 178 178 177 173 166 172 174 168 164 162 162 160 162 164 164 164 162 155 153 148 131 119 109 87 82 100 131
281 283 285 286 280 277 276 273 276 284 279 275 274 271 263 257 249 244 240 228 211 207 201 193 194 189 187 185 185 182 184 181 180 183 185 180 177 168 158 153 156 157 164 160 159 161 161 159 157 158 158 157 154 147 129 121 133 120 122 119 130 133